Weather reports worldwide

Advertisment
Greifswalder Oie, Germany (10097): temperature & dewpoint: 13.12.2018 05:00:00 - 19.12.2018 05:00:00 (CET)Greifswalder Oie, Germany (10097): temperature 5cm & temperature -5cm: 13.12.2018 05:00:00 - 19.12.2018 05:00:00 (CET)Greifswalder Oie, Germany (10097): temperature -20cm & temperature -100cm: 13.12.2018 05:00:00 - 19.12.2018 05:00:00 (CET)Greifswalder Oie, Germany (10097): water temperature: 13.12.2018 05:00:00 - 19.12.2018 05:00:00 (CET)Greifswalder Oie, Germany (10097): wind speed & gusts: 13.12.2018 05:00:00 - 19.12.2018 05:00:00 (CET)Greifswalder Oie, Germany (10097): wind direction: 13.12.2018 05:00:00 - 19.12.2018 05:00:00 (CET)Greifswalder Oie, Germany (10097): reduced air pressure: 13.12.2018 05:00:00 - 19.12.2018 05:00:00 (CET)Greifswalder Oie, Germany (10097): visibility: 13.12.2018 05:00:00 - 19.12.2018 05:00:00 (CET)Greifswalder Oie, Germany (10097): sunshine duration: 13.12.2018 05:00:00 - 19.12.2018 05:00:00 (CET)Greifswalder Oie, Germany (10097): precipitation: 13.12.2018 05:00:00 - 19.12.2018 05:00:00 (CET)
Date & Time tt [°C] td [°C] tt 5cm [°C] tt -5cm [°C] tt -20cm [°C] tt -100cm [°C] tw [°C] ff [km/h] ff [kn] fx [km/h] fx [kn] dd ppp [hPa] vv [km] sd [min] rr [mm]
19.12.2018 05:00:00 2,9 1,5 2,4 2,5 3,0 6,2 3,5 30 16 43 23 SE 1020,7 6 0 0,0
19.12.2018 04:00:00 2,6 1,8 2,5 2,6 3,0 6,2 3,6 26 14 41 22 SSE 1021,5 2,7 0 0,0
19.12.2018 03:00:00 2,6 2,3 2,6 2,6 3,0 6,2 3,6 26 14 37 20 SSE 1022,1 2,1 0 0,0
19.12.2018 02:00:00 2,7 2,5 2,7 2,6 2,9 6,2 3,5 25 14 36 19 SE 1022,3 0,9 0 0,0
19.12.2018 01:00:00 2,7 2,5 2,6 2,6 2,9 6,2 3,2 18 10 31 17 SSE 1022,7 1,1 0 0,0
19.12.2018 00:00:00 2,6 2,4 2,6 2,6 2,9 6,2 3,2 17 9 32 17 S 1023,3 0,2 0 0,0
18.12.2018 23:00:00 2,9 2,7 2,5 2,6 2,8 6,2 3,3 16 9 31 17 SSE 1023,4 1,8 0 0,0
18.12.2018 22:00:00 2,9 2,7 2,9 2,6 2,8 6,3 3,1 17 9 32 17 S 1023,9 1,1 0 0,0
18.12.2018 21:00:00 2,6 2,1 2,6 2,6 2,7 6,3 3,4 20 11 31 17 S 1024,4 0,2 0 0,0
18.12.2018 20:00:00 3,1 2,6 2,9 2,5 2,6 6,3 3,5 19 11 28 15 SE 1024,4 1,8 0 0,0
18.12.2018 19:00:00 2,9 2,5 2,8 2,4 2,6 6,3 3,6 16 8 24 13 SSE 1024,6 1,4 0 0,0
18.12.2018 18:00:00 2,7 2,3 2,7 2,4 2,5 6,3 3,5 14 7 23 13 SSE 1024,7 1,4 0 0,0
18.12.2018 17:00:00 2,7 2,4 2,6 2,3 2,4 6,3 3,3 15 8 29 16 SSE 1024,7 1,2 0 0,0
18.12.2018 16:00:00 2,6 2,2 2,5 2,3 2,4 6,3 3,2 21 11 31 17 SE 1024,5 0,5 0 0,0
18.12.2018 15:00:00 2,4 2,0 2,5 2,3 2,2 6,3 3,1 21 11 33 18 SE 1024,5 0,8 0 0,0
18.12.2018 14:00:00 2,6 1,9 2,7 2,3 2,1 6,3 3,2 21 11 29 16 SE 1024,6 1,5 0 0,0
18.12.2018 13:00:00 2,4 1,7 2,6 1,9 2,0 6,3 3,2 16 9 32 17 SSE 1025,1 2,4 0 0,0
18.12.2018 12:00:00 2,3 1,4 2,2 1,7 1,9 6,3 3,2 20 11 33 18 SSE 1025,5 2,7 0 0,0
18.12.2018 11:00:00 2,2 1,2 2,1 1,4 1,8 6,4 3,2 22 12 30 16 SE 1025,7 2,4 0 0,0
18.12.2018 10:00:00 2,2 1,3 2,0 1,1 1,7 6,4 3,3 18 10 29 15 SE 1025,5 2,7 0 0,0
18.12.2018 09:00:00 1,9 1,0 1,6 0,8 1,7 6,4 3,1 19 11 30 16 SE 1025,2 2,0 0 0,0
18.12.2018 08:00:00 1,8 0,9 1,5 0,6 1,7 6,4 3,3 19 10 28 15 SE 1025,1 2,2 0 0,1
18.12.2018 07:00:00 1,9 0,7 1,6 0,5 1,7 6,4 3,4 18 10 27 14 SE 1024,9 2,2 0 0,0
18.12.2018 06:00:00 1,7 0,6 1,4 0,5 1,7 6,4 3,2 18 10 27 15 SE 1024,6 1,9 0 0,0
18.12.2018 05:00:00 1,5 0,1 1,3 0,4 1,7 6,4 3,2 14 8 24 13 SSE 1024,8 2,6 0 0,0
18.12.2018 04:00:00 1,5 0,0 1,2 0,4 1,7 6,4 3,2 12 7 22 12 SSE 1024,8 3,3 0 0,0
18.12.2018 03:00:00 1,5 0,0 1,1 0,4 1,7 6,4 3,4 11 6 20 11 SSE 1024,8 6 0 0,0
18.12.2018 02:00:00 1,5 0,3 1,1 0,4 1,7 6,4 3,5 9 5 16 9 S 1024,6 3,6 0 0,0
18.12.2018 01:00:00 1,3 0,1 1,0 0,4 1,7 6,5 3,2 10 5 17 9 SE 1024,6 4,0 0 0,0
18.12.2018 00:00:00 1,0 -0,4 0,7 0,4 1,7 6,5 3,1 11 6 19 11 SSE 1024,6 3,8 0 0,0
17.12.2018 23:00:00 0,9 -1,0 0,5 0,4 1,7 6,5 3,2 11 6 19 11 SSE 1024,6 6 0 0,0
17.12.2018 22:00:00 0,8 -1,3 0,5 0,4 1,7 6,5 2,9 11 6 21 12 S 1024,7 6 0 0,0
17.12.2018 21:00:00 0,7 -1,7 0,4 0,4 1,7 6,5 3,1 12 7 21 11 S 1024,4 7 0 0,0
17.12.2018 20:00:00 0,6 -2,1 0,2 0,4 1,7 6,5 3,5 11 6 23 12 S 1024,0 8 0 0,0
17.12.2018 19:00:00 0,5 -2,3 0,1 0,4 1,7 6,5 3,4 10 5 19 10 SSE 1023,2 8 0 0,0
17.12.2018 18:00:00 0,4 -3,1 0,1 0,4 1,7 6,5 3,5 9 5 16 9 SSE 1023,1 10 0 0,0
17.12.2018 17:00:00 0,4 -3,1 0,0 0,4 1,7 6,5 3,4 9 5 16 9 SE 1022,6 9 0 0,0
17.12.2018 16:00:00 0,2 -3,5 -0,3 0,4 1,7 6,5 3,2 8 4 13 7 SE 1022,2 8 0 0,0
17.12.2018 15:00:00 0,0 -3,4 -1,3 0,4 1,7 6,6 3,2 7 4 13 7 ESE 1021,4 7 22 0,0
17.12.2018 14:00:00 0,6 -3,2 0,8 0,4 1,7 6,6 3,2 6 3 14 8 SE 1021,1 7 49 0,0
17.12.2018 13:00:00 0,6 -3,3 1,3 0,3 1,7 6,6 3,2 8 4 14 8 SSE 1020,6 7 53 0,0
17.12.2018 12:00:00 0,7 -3,1 0,6 0,3 1,8 6,6 3,2 8 4 19 10 S 1020,6 7 57 0,0
17.12.2018 11:00:00 0,7 -3,7 1,1 0,3 1,8 6,6 3,2 9 5 16 9 SSE 1020,5 10 3 0,0
17.12.2018 10:00:00 0,4 -3,7 0,1 0,3 1,8 6,6 3,1 8 5 16 9 SSE 1020,2 12 0 0,0
17.12.2018 09:00:00 0,1 -4,5 -1,2 0,3 1,8 6,6 3,1 10 5 20 11 SE 1019,5 14 0 0,0
17.12.2018 08:00:00 0,1 -3,8 -1,2 0,3 1,8 6,6 3,0 12 6 22 12 SSE 1018,7 8 0 0,0
17.12.2018 07:00:00 0,2 -4,1 -0,2 0,3 1,8 6,6 3,0 13 7 23 12 S 1018,2 9 0 0,0
17.12.2018 06:00:00 0,3 -4,2 -0,1 0,3 1,8 6,6 3,2 13 7 22 12 SSE 1017,6 10 0 0,0
17.12.2018 05:00:00 0,3 -4,0 -0,1 0,3 1,8 6,7 3,0 12 6 22 12 S 1017,3 10 0 0,0
17.12.2018 04:00:00 0,2 -4,2 -0,4 0,3 1,8 6,7 2,8 11 6 21 11 S 1017,0 14 0 0,0
17.12.2018 03:00:00 0,3 -4,0 -0,1 0,4 1,8 6,7 2,7 11 6 21 11 S 1016,9 14 0 0,0
17.12.2018 02:00:00 0,3 -4,1 -0,1 0,4 1,9 6,7 2,7 10 5 21 11 S 1016,6 14 0 0,0
17.12.2018 01:00:00 0,3 -4,3 -0,1 0,4 1,9 6,7 2,6 14 7 27 15 S 1016,5 14 0 0,0
17.12.2018 00:00:00 0,3 -4,5 0,0 0,4 1,9 6,7 2,7 16 9 29 15 S 1016,3 15 0 0,0
16.12.2018 23:00:00 0,4 -4,6 0,1 0,4 1,9 6,7 2,9 16 8 26 14 S 1016,1 15 0 0,0
16.12.2018 22:00:00 0,4 -4,7 0,0 0,4 1,9 6,7 3,0 15 8 28 15 S 1016,0 15 0 0,0
16.12.2018 21:00:00 0,2 -4,9 -0,1 0,4 1,9 6,7 3,0 18 10 28 15 SSE 1015,7 17 0 0,0
16.12.2018 20:00:00 0,1 -5,4 -0,2 0,4 1,9 6,8 3,1 16 9 30 16 S 1015,8 20 0 0,0
16.12.2018 19:00:00 0,2 -5,4 -0,1 0,4 1,9 6,8 2,9 18 10 33 18 SSE 1015,8 15 0 0,0
16.12.2018 18:00:00 0,5 -4,8 0,2 0,4 1,9 6,8 3,6 17 9 35 19 SSE 1015,9 14 0 0,0
16.12.2018 17:00:00 0,6 -4,9 0,2 0,4 2,0 6,8 3,5 21 11 34 19 SE 1015,4 21 0 0,0
16.12.2018 16:00:00 0,8 -5,0 0,4 0,4 2,0 6,8 3,3 21 12 36 19 SE 1015,5 28 0 0,0
16.12.2018 15:00:00 0,9 -4,5 0,5 0,4 2,0 6,8 3,3 26 14 39 21 SE 1015,9 24 0 0,0
16.12.2018 14:00:00 0,8 -3,3 0,7 0,4 2,0 6,8 3,4 19 11 34 19 SE 1016,1 15 0 0,0
16.12.2018 13:00:00 0,9 -3,3 0,9 0,4 2,0 6,8 3,4 23 12 35 19 SE 1016,9 15 0 0,0
16.12.2018 12:00:00 0,9 -3,7 0,8 0,4 2,1 6,8 3,4 22 12 41 22 SE 1017,8 16 0 0,0
16.12.2018 11:00:00 1,2 -3,5 0,9 0,4 2,1 6,8 3,4 26 14 42 23 SE 1018,7 17 0 0,0
16.12.2018 10:00:00 1,1 -2,8 0,8 0,4 2,1 6,8 3,5 26 14 47 25 SE 1018,8 15 0 0,0
16.12.2018 09:00:00 1,0 -3,8 0,4 0,4 2,1 6,9 3,5 30 16 47 26 SE 1019,4 20 0 0,0
16.12.2018 08:00:00 0,7 -3,8 -0,5 0,4 2,2 6,9 3,5 30 16 49 27 SE 1019,6 19 0 0,0
16.12.2018 07:00:00 0,8 -3,1 0,1 0,5 2,2 6,9 3,7 29 16 50 27 SE 1020,5 18 0 0,0
16.12.2018 06:00:00 0,4 -2,6 -0,5 0,5 2,2 6,9 3,8 30 16 45 25 SE 1021,2 13 0 0,0
16.12.2018 05:00:00 0,8 -2,4 0,1 0,4 2,3 6,9 3,9 29 15 42 23 ESE 1021,7 13 0 0,0
16.12.2018 04:00:00 1,2 -2,6 -0,5 0,1 2,4 6,9 3,9 22 12 37 20 SE 1022,5 17 0 0,0
16.12.2018 03:00:00 1,5 -3,0 0,2 0,8 2,5 6,9 3,9 24 13 37 20 SE 1023,3 18 0 0,0
16.12.2018 02:00:00 1,9 -2,4 1,4 1,1 2,5 6,9 4,0 23 13 35 19 SE 1023,9 18 0 0,0
16.12.2018 01:00:00 1,9 -1,1 1,4 1,2 2,5 6,9 4,0 21 11 35 19 SE 1024,3 12 0 0,0
16.12.2018 00:00:00 2,0 -1,1 1,5 1,2 2,6 6,9 3,9 23 12 32 18 SE 1025,2 12 0 0,0
15.12.2018 23:00:00 1,8 -1,4 1,4 1,2 2,6 7,0 4,0 23 13 34 19 SE 1026,0 16 0 0,0
15.12.2018 22:00:00 1,8 -1,4 1,2 1,2 2,6 7,0 4,0 22 12 34 18 SE 1026,5 13 0 0,0
15.12.2018 21:00:00 1,8 -1,5 0,9 1,4 2,6 7,0 4,1 21 12 31 17 SE 1027,0 16 0 0,0
15.12.2018 20:00:00 1,4 -0,9 0,7 1,4 2,7 7,0 4,2 19 10 28 15 SE 1027,5 12 0 0,0
15.12.2018 19:00:00 1,1 0,1 0,9 1,5 2,7 7,0 4,2 10 5 22 12 S 1028,0 9 0 0,0
15.12.2018 18:00:00 1,7 0,1 1,4 1,7 2,7 7,0 4,3 18 10 29 16 SW 1027,9 17 0 0,0
15.12.2018 17:00:00 2,1 0,0 1,8 1,7 2,6 7,0 4,3 21 11 28 15 E 1028,2 28 0 0,0
15.12.2018 16:00:00 1,7 -0,6 1,4 1,7 2,6 7,0 4,3 16 9 22 12 NW 1028,7 25 0 0,0
15.12.2018 15:00:00 1,8 -1,0 1,7 1,8 2,6 7,1 4,2 19 10 24 13 NW 1029,0 28 0 0,0
15.12.2018 14:00:00 1,7 -0,6 1,7 1,7 2,5 7,1 4,2 19 10 23 13 NW 1029,1 34 0 0,0
15.12.2018 13:00:00 1,7 -0,7 1,7 1,9 2,4 7,1 4,2 13 7 16 9 NW 1029,7 39 0 0,0
15.12.2018 12:00:00 1,8 -0,9 1,9 1,7 2,3 7,1 4,2 11 6 16 9 NW 1030,2 44 0 0,0
15.12.2018 11:00:00 1,6 -0,5 1,6 1,3 2,3 7,1 4,1 11 6 16 9 NNW 1030,8 39 0 0,0
15.12.2018 10:00:00 1,2 -0,5 1,0 1,0 2,3 7,1 4,1 9 5 13 7 NNW 1030,9 25 0 0,0
15.12.2018 09:00:00 1,0 -0,9 0,7 0,8 2,3 7,1 4,1 7 4 14 8 N 1030,9 27 0 0,0
15.12.2018 08:00:00 1,2 -2,7 0,6 0,8 2,3 7,1 4,1 4 2 9 5 ENE 1030,7 46 0 0,0
15.12.2018 07:00:00 1,2 -3,2 0,4 0,7 2,3 7,1 4,2 2 1 5 3 NNE 1030,7 50 0 0,0
15.12.2018 06:00:00 1,2 -3,2 0,4 0,7 2,3 7,2 4,2 0 0 8 4 N 1030,4 47 0 0,0
15.12.2018 05:00:00 1,1 -3,5 0,4 0,6 2,3 7,2 4,4 5 3 11 6 SE 1030,3 51 0 0,0
15.12.2018 04:00:00 1,0 -3,7 0,4 0,6 2,3 7,2 4,3 7 4 13 7 SSE 1030,4 48 0 0,0
15.12.2018 03:00:00 1,0 -3,7 0,4 0,6 2,3 7,2 4,4 8 5 18 10 ESE 1030,5 51 0 0,0
15.12.2018 02:00:00 1,0 -4,5 0,5 0,6 2,4 7,2 4,4 11 6 19 11 SE 1030,5 58 0 0,0
15.12.2018 01:00:00 1,1 -4,3 0,6 0,6 2,4 7,2 4,3 13 7 26 14 SE 1030,4 68 0 0,0
15.12.2018 00:00:00 1,2 -4,7 0,7 0,6 2,4 7,2 4,4 18 10 28 15 SE 1030,3 59 0 0,0
14.12.2018 23:00:00 0,9 -4,4 0,3 0,6 2,5 7,2 4,5 15 8 27 15 SE 1030,2 40 0 0,0
14.12.2018 22:00:00 1,0 -4,4 0,5 0,6 2,5 7,2 4,5 13 7 32 17 E 1030,2 40 0 0,0
14.12.2018 21:00:00 1,2 -4,3 0,8 0,6 2,6 7,3 4,6 20 11 35 19 E 1030,0 46 0 0,0
14.12.2018 20:00:00 1,4 -4,1 0,8 0,7 2,6 7,3 4,7 15 8 26 14 ESE 1029,7 44 0 0,0
14.12.2018 19:00:00 1,5 -4,3 0,9 0,8 2,7 7,3 4,8 16 9 25 14 ESE 1029,6 47 0 0,0
14.12.2018 18:00:00 1,5 -4,2 0,9 0,8 2,7 7,3 4,7 15 8 21 12 ESE 1029,4 45 0 0,0
14.12.2018 17:00:00 1,3 -3,9 0,6 0,9 2,8 7,3 4,6 11 6 20 11 ESE 1029,1 37 0 0,0
14.12.2018 16:00:00 1,2 -4,3 0,5 1,0 2,8 7,3 4,6 11 6 26 14 SE 1028,8 43 0 0,0
14.12.2018 15:00:00 1,0 -3,9 0,8 1,2 2,9 7,3 4,6 16 9 29 16 SE 1028,5 36 0 0,0
14.12.2018 14:00:00 1,1 -4,0 0,9 1,2 2,9 7,3 4,6 14 7 28 15 SE 1028,2 48 0 0,0
14.12.2018 13:00:00 1,0 -3,7 0,8 1,1 2,9 7,3 4,6 16 8 30 16 SE 1028,1 44 0 0,0
14.12.2018 12:00:00 1,1 -3,2 0,9 1,2 3,0 7,3 4,7 18 10 39 21 ESE 1027,9 46 0 0,0
14.12.2018 11:00:00 1,1 -4,3 0,9 1,0 3,0 7,3 4,8 31 17 45 25 E 1028,0 68 0 0,0
14.12.2018 10:00:00 1,2 -3,9 1,0 1,2 3,1 7,3 4,8 34 18 50 27 E 1027,5 53 0 0,0
14.12.2018 09:00:00 1,7 -3,2 1,3 1,2 3,2 7,3 4,8 26 14 45 24 E 1026,9 62 0 0,0
14.12.2018 08:00:00 2,1 -3,0 1,5 1,4 3,2 7,4 4,8 27 14 48 26 E 1026,5 58 0 0,0
14.12.2018 07:00:00 2,3 -2,2 1,8 1,6 3,3 7,4 4,9 28 15 42 23 E 1026,1 44 0 0,0
14.12.2018 06:00:00 2,1 -1,8 1,7 1,6 3,3 7,4 4,9 19 10 27 14 E 1026,0 36 0 0,0
14.12.2018 05:00:00 1,9 -1,8 1,5 1,7 3,4 7,4 4,9 18 10 30 16 E 1026,0 34 0 0,0
14.12.2018 04:00:00 2,5 -2,7 1,7 1,7 3,4 7,4 5,0 14 8 24 13 ESE 1025,9 53 0 0,0
14.12.2018 03:00:00 2,7 -2,5 1,7 1,8 3,5 7,4 5,0 12 7 20 11 SE 1025,8 66 0 0,0
14.12.2018 02:00:00 2,6 -3,0 1,4 1,8 3,5 7,4 5,0 9 5 15 8 E 1025,8 59 0 0,0
14.12.2018 01:00:00 2,5 -2,5 1,4 1,8 3,6 7,4 5,0 7 4 20 11 SE 1025,6 58 0 0,0
14.12.2018 00:00:00 2,7 -2,7 1,6 1,8 3,7 7,4 5,0 13 7 19 10 ESE 1025,5 55 0 0,0
13.12.2018 23:00:00 1,9 -1,5 0,0 2,0 3,8 7,4 5,1 9 5 23 12 SE 1025,5 63 0 0,0
13.12.2018 22:00:00 2,8 -0,4 2,0 2,0 3,9 7,4 5,1 15 8 22 12 E 1025,5 65 0 0,0
13.12.2018 21:00:00 2,5 -0,4 1,1 2,2 3,9 7,4 5,3 14 7 22 12 E 1025,0 54 0 0,0
13.12.2018 20:00:00 2,5 0,3 1,7 2,4 4,0 7,4 5,2 8 4 19 10 ENE 1025,2 50 0 0,0
13.12.2018 19:00:00 2,4 0,2 1,6 2,5 4,1 7,4 5,2 16 9 30 16 E 1025,0 38 0 0,0
13.12.2018 18:00:00 2,8 0,4 2,2 2,7 4,1 7,4 5,1 14 8 20 11 ENE 1024,9 66 0 0,0
13.12.2018 17:00:00 2,4 0,9 1,9 2,9 4,2 7,4 5,1 13 7 23 13 NE 1025,2 57 0 0,0
13.12.2018 16:00:00 2,5 0,8 1,7 3,1 4,2 7,5 5,1 10 5 14 7 ENE 1025,3 70 0 0,1
13.12.2018 15:00:00 2,6 1,0 2,3 3,4 4,2 7,5 5,2 5 3 23 12 ENE 1025,3 48 2 0,0
13.12.2018 14:00:00 3,0 0,6 2,8 3,8 4,2 7,5 5,2 7 4 13 7 NNE 1025,3 63 1 0,0
13.12.2018 13:00:00 2,8 1,1 2,6 3,7 4,1 7,5 5,2 11 6 28 15 ENE 1025,7 21 8 0,2
13.12.2018 12:00:00 3,8 0,5 3,9 3,5 4,0 7,5 5,1 12 6 22 12 E 1025,8 70 2 0,0
13.12.2018 11:00:00 3,0 0,9 2,9 3,2 4,0 7,5 5,1 17 9 32 17 ENE 1026,2 70 0 0,0
13.12.2018 10:00:00 3,5 0,9 2,8 2,9 4,0 7,5 5,1 19 10 36 19 E 1026,2 64 0 0,0
13.12.2018 09:00:00 2,8 1,1 2,2 2,7 4,0 7,5 5,1 21 11 35 19 E 1026,3 62 0 1,0
13.12.2018 08:00:00 2,6 0,8 2,0 2,6 4,1 7,5 5,1 22 12 37 20 ENE 1026,1 5 0 0,1
13.12.2018 07:00:00 4,0 1,1 2,4 2,9 4,1 7,5 5,1 21 12 33 18 E 1025,7 70 0 0,0
13.12.2018 06:00:00 3,5 1,5 2,7 2,9 4,1 7,5 5,2 26 14 38 21 E 1026,0 22 0 0,2
13.12.2018 05:00:00 3,5 1,4 2,4 2,7 4,2 7,5 5,2 16 9 29 15 E 1026,3 70 0 0,2

tt = temperature
td = dewpoint
tt 5cm = temperature 5cm
tt -5cm = temperature -5cm
tt -20cm = temperature -20cm
tt -100cm = temperature -100cm
tw = water temperature
ff = wind speed
fx = gusts
dd = wind direction
ppp = reduced air pressure
vv = visibility
sd = sunshine duration
rr = precipitation

Next stations